Time,TemperatureF,DewpointF,PressureIn,WindDirection,WindDirectionDegrees,WindSpeedMPH,WindSpeedGustMPH,Humidity,HourlyPrecipIn,Conditions,Clouds,dailyrainin,SoftwareType,DateUTC
2013-04-25 00:01:00,73.9,64.3,30.06,ENE,63,2.0,5.0,72,0.00,,---,0.00,VWS V14.01,2013-04-25 04:01:00,
2013-04-25 00:02:00,73.9,64.3,30.06,ENE,63,2.0,5.0,72,0.00,,---,0.00,VWS V14.01,2013-04-25 04:02:00,
2013-04-25 00:03:00,73.9,64.3,30.06,ENE,63,2.0,5.0,72,0.00,,---,0.00,VWS V14.01,2013-04-25 04:03:00,
2013-04-25 00:08:00,73.9,64.3,30.06,ENE,64,3.0,5.0,72,0.00,,---,0.00,VWS V14.01,2013-04-25 04:08:00,
2013-04-25 00:13:00,73.9,64.3,30.06,ENE,64,2.0,5.0,72,0.00,,---,0.00,VWS V14.01,2013-04-25 04:13:00,
2013-04-25 00:18:00,73.9,64.3,30.06,ENE,64,2.0,5.0,72,0.00,,---,0.00,VWS V14.01,2013-04-25 04:18:00,
2013-04-25 00:23:00,73.9,64.3,30.06,ENE,64,0.0,5.0,72,0.00,,---,0.00,VWS V14.01,2013-04-25 04:23:00,
2013-04-25 00:28:00,73.7,64.1,30.06,ENE,64,1.0,5.0,72,0.00,,---,0.00,VWS V14.01,2013-04-25 04:28:00,
2013-04-25 00:33:00,73.7,64.1,30.06,ENE,64,1.0,1.0,72,0.00,,---,0.00,VWS V14.01,2013-04-25 04:33:00,
2013-04-25 00:38:00,73.5,63.9,30.06,ENE,64,2.0,4.0,72,0.00,,---,0.00,VWS V14.01,2013-04-25 04:38:00,
2013-04-25 00:43:00,73.5,63.9,30.06,ENE,65,1.0,4.0,72,0.00,,---,0.00,VWS V14.01,2013-04-25 04:43:00,
2013-04-25 00:48:00,73.5,63.9,30.05,ENE,65,2.0,4.0,72,0.00,,---,0.00,VWS V14.01,2013-04-25 04:48:00,
2013-04-25 00:53:00,73.3,63.7,30.05,ENE,65,2.0,4.0,72,0.00,,---,0.00,VWS V14.01,2013-04-25 04:53:00,
2013-04-25 00:58:00,73.3,64.1,30.05,ENE,65,1.0,4.0,73,0.00,,---,0.00,VWS V14.01,2013-04-25 04:58:00,
2013-04-25 01:03:00,73.2,64.0,30.05,ENE,65,1.0,3.0,73,0.00,,---,0.00,VWS V14.01,2013-04-25 05:03:00,
2013-04-25 01:08:00,73.2,64.0,30.05,ENE,65,1.0,3.0,73,0.00,,---,0.00,VWS V14.01,2013-04-25 05:08:00,
2013-04-25 01:13:00,73.2,64.0,30.05,ENE,65,1.0,3.0,73,0.00,,---,0.00,VWS V14.01,2013-04-25 05:13:00,
2013-04-25 01:18:00,73.0,63.8,30.05,ENE,65,2.0,4.0,73,0.00,,---,0.00,VWS V14.01,2013-04-25 05:18:00,
2013-04-25 01:23:00,73.0,64.2,30.05,ENE,65,2.0,4.0,74,0.00,,---,0.00,VWS V14.01,2013-04-25 05:23:00,
2013-04-25 01:28:00,73.0,64.2,30.05,ENE,65,2.0,4.0,74,0.00,,---,0.00,VWS V14.01,2013-04-25 05:28:00,
2013-04-25 01:33:00,73.0,64.2,30.05,ENE,65,3.0,3.0,74,0.00,,---,0.00,VWS V14.01,2013-04-25 05:33:00,
2013-04-25 01:38:00,72.8,64.0,30.05,ENE,65,1.0,4.0,74,0.00,,---,0.00,VWS V14.01,2013-04-25 05:38:00,
2013-04-25 01:43:00,72.8,64.0,30.05,ENE,65,0.0,4.0,74,0.00,,---,0.00,VWS V14.01,2013-04-25 05:43:00,
2013-04-25 01:49:00,72.8,64.4,30.04,ENE,65,2.0,4.0,75,0.00,,---,0.00,VWS V14.01,2013-04-25 05:49:00,
2013-04-25 01:54:00,72.7,64.3,30.04,ENE,65,2.0,4.0,75,0.00,,---,0.00,VWS V14.01,2013-04-25 05:54:00,
2013-04-25 01:59:00,72.7,64.3,30.04,ENE,65,2.0,4.0,75,0.00,,---,0.00,VWS V14.01,2013-04-25 05:59:00,
2013-04-25 02:04:00,72.5,64.1,30.03,ENE,65,1.0,2.0,75,0.00,,---,0.00,VWS V14.01,2013-04-25 06:04:00,
2013-04-25 02:09:00,72.3,63.9,30.03,ENE,65,2.0,3.0,75,0.00,,---,0.00,VWS V14.01,2013-04-25 06:09:00,
2013-04-25 02:14:00,72.3,63.9,30.03,ENE,65,1.0,3.0,75,0.00,,---,0.00,VWS V14.01,2013-04-25 06:14:00,
2013-04-25 02:19:00,72.1,63.8,30.03,ENE,65,2.0,3.0,75,0.00,,---,0.00,VWS V14.01,2013-04-25 06:19:00,
2013-04-25 02:24:00,72.0,63.7,30.03,ENE,65,0.0,3.0,75,0.00,,---,0.00,VWS V14.01,2013-04-25 06:24:00,
2013-04-25 02:29:00,72.0,63.7,30.03,ENE,65,1.0,4.0,75,0.00,,---,0.00,VWS V14.01,2013-04-25 06:29:00,
2013-04-25 02:34:00,71.8,63.8,30.02,ENE,65,0.0,0.0,76,0.00,,---,0.00,VWS V14.01,2013-04-25 06:34:00,
2013-04-25 02:39:00,71.8,63.8,30.02,ENE,65,0.0,2.0,76,0.00,,---,0.00,VWS V14.01,2013-04-25 06:39:00,
2013-04-25 02:44:00,71.8,63.8,30.02,ENE,65,1.0,3.0,76,0.00,,---,0.00,VWS V14.01,2013-04-25 06:44:00,
2013-04-25 02:49:00,71.6,63.6,30.02,ENE,65,1.0,3.0,76,0.00,,---,0.00,VWS V14.01,2013-04-25 06:49:00,
2013-04-25 02:54:00,71.6,63.6,30.02,ENE,65,1.0,3.0,76,0.00,,---,0.00,VWS V14.01,2013-04-25 06:54:00,
2013-04-25 02:59:00,71.5,63.5,30.02,ENE,65,0.0,3.0,76,0.00,,---,0.00,VWS V14.01,2013-04-25 06:59:00,
2013-04-25 03:04:00,71.5,63.5,30.02,ENE,65,0.0,3.0,76,0.00,,---,0.00,VWS V14.01,2013-04-25 07:04:00,
2013-04-25 03:09:00,71.3,63.7,30.02,ENE,65,0.0,3.0,77,0.00,,---,0.00,VWS V14.01,2013-04-25 07:09:00,
2013-04-25 03:15:00,71.3,63.7,30.02,ENE,65,0.0,3.0,77,0.00,,---,0.00,VWS V14.01,2013-04-25 07:15:00,
2013-04-25 03:20:00,71.1,63.5,30.02,ENE,65,0.0,3.0,77,0.00,,---,0.00,VWS V14.01,2013-04-25 07:20:00,
2013-04-25 03:25:00,70.9,63.3,30.02,ENE,65,0.0,3.0,77,0.00,,---,0.00,VWS V14.01,2013-04-25 07:25:00,
2013-04-25 03:30:00,70.8,63.6,30.02,ENE,65,0.0,3.0,78,0.00,,---,0.00,VWS V14.01,2013-04-25 07:30:00,
2013-04-25 03:35:00,70.6,63.4,30.02,ENE,65,0.0,0.0,78,0.00,,---,0.00,VWS V14.01,2013-04-25 07:35:00,
2013-04-25 03:40:00,70.4,63.2,30.02,ENE,65,0.0,1.0,78,0.00,,---,0.00,VWS V14.01,2013-04-25 07:40:00,
2013-04-25 03:45:00,70.3,63.5,30.02,ENE,65,0.0,2.0,79,0.00,,---,0.00,VWS V14.01,2013-04-25 07:45:00,
2013-04-25 03:50:00,70.3,63.5,30.02,ENE,65,0.0,2.0,79,0.00,,---,0.00,VWS V14.01,2013-04-25 07:50:00,
2013-04-25 03:55:00,70.1,63.3,30.02,ENE,65,0.0,2.0,79,0.00,,---,0.00,VWS V14.01,2013-04-25 07:55:00,
2013-04-25 04:00:00,69.9,63.1,30.02,ENE,65,0.0,2.0,79,0.00,,---,0.00,VWS V14.01,2013-04-25 08:00:00,
2013-04-25 04:05:00,69.8,63.4,30.02,ENE,65,0.0,0.0,80,0.00,,---,0.00,VWS V14.01,2013-04-25 08:05:00,
2013-04-25 04:10:00,69.6,63.2,30.02,ENE,65,0.0,1.0,80,0.00,,---,0.00,VWS V14.01,2013-04-25 08:10:00,
2013-04-25 04:15:00,69.4,63.0,30.02,ENE,65,0.0,1.0,80,0.00,,---,0.00,VWS V14.01,2013-04-25 08:15:00,
2013-04-25 04:20:00,69.3,63.2,30.02,ENE,65,0.0,1.0,81,0.00,,---,0.00,VWS V14.01,2013-04-25 08:20:00,
2013-04-25 04:25:00,69.1,63.0,30.02,ENE,65,0.0,1.0,81,0.00,,---,0.00,VWS V14.01,2013-04-25 08:25:00,
2013-04-25 04:30:00,69.1,63.0,30.02,ENE,65,0.0,1.0,81,0.00,,---,0.00,VWS V14.01,2013-04-25 08:30:00,
2013-04-25 04:35:00,68.9,63.2,30.02,ENE,65,0.0,0.0,82,0.00,,---,0.00,VWS V14.01,2013-04-25 08:35:00,
2013-04-25 04:40:00,68.9,63.2,30.02,ENE,65,0.0,1.0,82,0.00,,---,0.00,VWS V14.01,2013-04-25 08:40:00,
2013-04-25 04:45:00,68.8,63.1,30.02,ENE,65,0.0,1.0,82,0.00,,---,0.00,VWS V14.01,2013-04-25 08:45:00,
2013-04-25 04:50:00,68.8,63.4,30.02,ENE,65,0.0,2.0,83,0.00,,---,0.00,VWS V14.01,2013-04-25 08:50:00,
2013-04-25 04:55:00,68.8,63.4,30.02,ENE,65,0.0,2.0,83,0.00,,---,0.00,VWS V14.01,2013-04-25 08:55:00,
2013-04-25 05:00:00,68.6,63.2,30.02,ENE,65,0.0,2.0,83,0.00,,---,0.00,VWS V14.01,2013-04-25 09:00:00,
2013-04-25 05:05:00,68.6,63.2,30.02,ENE,65,0.0,2.0,83,0.00,,---,0.00,VWS V14.01,2013-04-25 09:05:00,
2013-04-25 05:10:00,68.6,63.2,30.02,ENE,65,0.0,3.0,83,0.00,,---,0.00,VWS V14.01,2013-04-25 09:10:00,
2013-04-25 05:16:00,68.6,63.2,30.02,ENE,65,0.0,3.0,83,0.00,,---,0.00,VWS V14.01,2013-04-25 09:16:00,
2013-04-25 05:21:00,68.6,63.2,30.02,ENE,65,0.0,3.0,83,0.00,,---,0.00,VWS V14.01,2013-04-25 09:21:00,
2013-04-25 05:26:00,68.6,63.2,30.02,ENE,65,0.0,3.0,83,0.00,,---,0.00,VWS V14.01,2013-04-25 09:26:00,
2013-04-25 05:31:00,68.6,63.2,30.02,ENE,65,0.0,3.0,83,0.00,,---,0.00,VWS V14.01,2013-04-25 09:31:00,
2013-04-25 05:36:00,68.4,63.0,30.02,ENE,65,0.0,0.0,83,0.00,,---,0.00,VWS V14.01,2013-04-25 09:36:00,
2013-04-25 05:41:00,68.4,63.0,30.02,ENE,65,0.0,0.0,83,0.00,,---,0.00,VWS V14.01,2013-04-25 09:41:00,
2013-04-25 05:46:00,68.4,63.4,30.02,ENE,65,0.0,0.0,84,0.00,,---,0.00,VWS V14.01,2013-04-25 09:46:00,
2013-04-25 05:51:00,68.3,63.3,30.03,ENE,65,1.0,2.0,84,0.00,,---,0.00,VWS V14.01,2013-04-25 09:51:00,
2013-04-25 05:56:00,68.3,63.3,30.03,ENE,65,0.0,2.0,84,0.00,,---,0.00,VWS V14.01,2013-04-25 09:56:00,
2013-04-25 06:01:00,68.3,63.3,30.03,ENE,65,0.0,2.0,84,0.00,,---,0.00,VWS V14.01,2013-04-25 10:01:00,
2013-04-25 06:06:00,68.3,63.3,30.03,ENE,65,0.0,0.0,84,0.00,,---,0.00,VWS V14.01,2013-04-25 10:06:00,
2013-04-25 06:11:00,68.1,63.4,30.03,ENE,65,0.0,0.0,85,0.00,,---,0.00,VWS V14.01,2013-04-25 10:11:00,
2013-04-25 06:16:00,68.1,63.4,30.03,ENE,65,0.0,0.0,85,0.00,,---,0.00,VWS V14.01,2013-04-25 10:16:00,
2013-04-25 06:21:00,67.9,63.2,30.04,ENE,65,0.0,0.0,85,0.00,,---,0.00,VWS V14.01,2013-04-25 10:21:00,
2013-04-25 06:26:00,67.8,63.1,30.04,ENE,65,0.0,0.0,85,0.00,,---,0.00,VWS V14.01,2013-04-25 10:26:00,
2013-04-25 06:31:00,67.6,62.9,30.04,ENE,65,0.0,0.0,85,0.00,,---,0.00,VWS V14.01,2013-04-25 10:31:00,
2013-04-25 06:36:00,67.6,63.3,30.05,ENE,65,0.0,0.0,86,0.00,,---,0.00,VWS V14.01,2013-04-25 10:36:00,
2013-04-25 06:41:00,67.6,63.6,30.05,ENE,65,0.0,0.0,87,0.00,,---,0.00,VWS V14.01,2013-04-25 10:41:00,
2013-04-25 06:46:00,67.6,63.6,30.05,ENE,65,0.0,0.0,87,0.00,,---,0.00,VWS V14.01,2013-04-25 10:46:00,
2013-04-25 06:51:00,67.6,63.6,30.05,ENE,65,0.0,0.0,87,0.00,,---,0.00,VWS V14.01,2013-04-25 10:51:00,
2013-04-25 06:57:00,67.4,63.7,30.05,ENE,74,0.0,1.0,88,0.00,,---,0.00,VWS V14.01,2013-04-25 10:57:00,
2013-04-25 07:02:00,67.3,63.6,30.05,ENE,74,0.0,1.0,88,0.00,,---,0.00,VWS V14.01,2013-04-25 11:02:00,
2013-04-25 07:07:00,67.3,63.6,30.05,ENE,74,0.0,0.0,88,0.00,,---,0.00,VWS V14.01,2013-04-25 11:07:00,
2013-04-25 07:12:00,67.1,63.8,30.05,ENE,74,0.0,0.0,89,0.00,,---,0.00,VWS V14.01,2013-04-25 11:12:00,
2013-04-25 07:17:00,67.1,63.8,30.06,ENE,74,0.0,0.0,89,0.00,,---,0.00,VWS V14.01,2013-04-25 11:17:00,
2013-04-25 07:22:00,67.1,63.8,30.06,ENE,74,0.0,0.0,89,0.00,,---,0.00,VWS V14.01,2013-04-25 11:22:00,
2013-04-25 07:27:00,67.1,64.1,30.06,ENE,74,0.0,0.0,90,0.00,,---,0.00,VWS V14.01,2013-04-25 11:27:00,
2013-04-25 07:32:00,67.3,64.3,30.07,ENE,74,0.0,0.0,90,0.00,,---,0.00,VWS V14.01,2013-04-25 11:32:00,
2013-04-25 07:37:00,67.4,64.4,30.07,ENE,74,0.0,0.0,90,0.00,,---,0.00,VWS V14.01,2013-04-25 11:37:00,
2013-04-25 07:42:00,67.8,65.1,30.07,ENE,74,0.0,0.0,91,0.00,,---,0.00,VWS V14.01,2013-04-25 11:42:00,
2013-04-25 07:47:00,68.3,65.6,30.08,ENE,74,0.0,0.0,91,0.00,,---,0.00,VWS V14.01,2013-04-25 11:47:00,
2013-04-25 07:52:00,68.6,65.6,30.08,ENE,74,0.0,1.0,90,0.00,,---,0.00,VWS V14.01,2013-04-25 11:52:00,
2013-04-25 07:57:00,69.3,65.9,30.08,ENE,74,0.0,1.0,89,0.00,,---,0.00,VWS V14.01,2013-04-25 11:57:00,
2013-04-25 08:02:00,69.8,65.4,30.08,ENE,74,0.0,2.0,86,0.00,,---,0.00,VWS V14.01,2013-04-25 12:02:00,
2013-04-25 08:07:00,70.8,65.4,30.08,ENE,74,2.0,2.0,83,0.00,,---,0.00,VWS V14.01,2013-04-25 12:07:00,
2013-04-25 08:12:00,71.5,65.4,30.08,ENE,74,1.0,2.0,81,0.00,,---,0.00,VWS V14.01,2013-04-25 12:12:00,
2013-04-25 08:17:00,72.1,65.2,30.08,ENE,74,1.0,2.0,79,0.00,,---,0.00,VWS V14.01,2013-04-25 12:17:00,
2013-04-25 08:22:00,72.8,65.2,30.08,ENE,74,0.0,3.0,77,0.00,,---,0.00,VWS V14.01,2013-04-25 12:22:00,
2013-04-25 08:27:00,73.3,64.9,30.08,ENE,74,2.0,3.0,75,0.00,,---,0.00,VWS V14.01,2013-04-25 12:27:00,
2013-04-25 08:32:00,74.0,65.6,30.09,ENE,74,0.0,3.0,75,0.00,,---,0.00,VWS V14.01,2013-04-25 12:32:00,
2013-04-25 08:37:00,74.6,65.4,30.09,ENE,74,2.0,2.0,73,0.00,,---,0.00,VWS V14.01,2013-04-25 12:37:00,
2013-04-25 08:42:00,75.1,65.5,30.09,ENE,75,1.0,2.0,72,0.00,,---,0.00,VWS V14.01,2013-04-25 12:42:00,
2013-04-25 08:47:00,75.8,65.3,30.09,NNW,333,1.0,5.0,70,0.00,,---,0.00,VWS V14.01,2013-04-25 12:47:00,
2013-04-25 08:53:00,76.3,64.6,30.09,ENE,65,4.0,5.0,67,0.00,,---,0.00,VWS V14.01,2013-04-25 12:53:00,
2013-04-25 08:58:00,76.8,63.7,30.09,ENE,60,3.0,5.0,64,0.00,,---,0.00,VWS V14.01,2013-04-25 12:58:00,
2013-04-25 09:03:00,77.4,63.8,30.09,ENE,60,2.0,5.0,63,0.00,,---,0.00,VWS V14.01,2013-04-25 13:03:00,
2013-04-25 09:08:00,77.6,63.6,30.09,ENE,63,3.0,5.0,62,0.00,,---,0.00,VWS V14.01,2013-04-25 13:08:00,
2013-04-25 09:13:00,77.9,63.4,30.09,East,80,4.0,5.0,61,0.00,,---,0.00,VWS V14.01,2013-04-25 13:13:00,
2013-04-25 09:18:00,78.1,62.6,30.09,NE,53,1.0,9.0,59,0.00,,---,0.00,VWS V14.01,2013-04-25 13:18:00,
2013-04-25 09:23:00,78.5,63.0,30.09,ENE,74,2.0,9.0,59,0.00,,---,0.00,VWS V14.01,2013-04-25 13:23:00,
2013-04-25 09:28:00,78.6,63.1,30.09,ENE,67,2.0,9.0,59,0.00,,---,0.00,VWS V14.01,2013-04-25 13:28:00,
2013-04-25 09:33:00,79.0,63.0,30.09,ENE,57,5.0,6.0,58,0.00,,---,0.00,VWS V14.01,2013-04-25 13:33:00,
2013-04-25 09:38:00,79.4,62.9,30.09,NE,56,2.0,6.0,57,0.00,,---,0.00,VWS V14.01,2013-04-25 13:38:00,
2013-04-25 09:43:00,79.4,62.9,30.09,NE,56,2.0,6.0,57,0.00,,---,0.00,VWS V14.01,2013-04-25 13:43:00,
2013-04-25 09:48:00,79.6,62.5,30.10,ENE,69,3.0,6.0,56,0.00,,---,0.00,VWS V14.01,2013-04-25 13:48:00,
2013-04-25 09:53:00,79.8,62.7,30.10,North,350,2.0,6.0,56,0.00,,---,0.00,VWS V14.01,2013-04-25 13:53:00,
2013-04-25 09:58:00,79.9,61.8,30.10,ENE,58,3.0,6.0,54,0.00,,---,0.00,VWS V14.01,2013-04-25 13:58:00,
2013-04-25 10:03:00,80.1,62.5,30.10,ENE,65,0.0,5.0,55,0.00,,---,0.00,VWS V14.01,2013-04-25 14:03:00,
2013-04-25 10:08:00,80.3,62.7,30.10,ENE,78,4.0,5.0,55,0.00,,---,0.00,VWS V14.01,2013-04-25 14:08:00,
2013-04-25 10:13:00,80.5,61.8,30.10,ESE,110,2.0,8.0,53,0.00,,---,0.00,VWS V14.01,2013-04-25 14:13:00,
2013-04-25 10:18:00,80.5,61.8,30.10,East,99,5.0,8.0,53,0.00,,---,0.00,VWS V14.01,2013-04-25 14:18:00,
2013-04-25 10:23:00,80.5,61.3,30.10,ENE,62,5.0,9.0,52,0.00,,---,0.00,VWS V14.01,2013-04-25 14:23:00,
2013-04-25 10:28:00,80.9,61.6,30.10,ENE,74,3.0,9.0,52,0.00,,---,0.00,VWS V14.01,2013-04-25 14:28:00,
2013-04-25 10:33:00,81.1,61.3,30.11,East,96,0.0,2.0,51,0.00,,---,0.00,VWS V14.01,2013-04-25 14:33:00,
2013-04-25 10:38:00,81.1,62.9,30.11,East,90,2.0,7.0,54,0.00,,---,0.00,VWS V14.01,2013-04-25 14:38:00,
2013-04-25 10:43:00,81.2,61.9,30.11,East,85,0.0,7.0,52,0.00,,---,0.00,VWS V14.01,2013-04-25 14:43:00,
2013-04-25 10:49:00,81.6,61.7,30.11,NE,51,4.0,7.0,51,0.00,,---,0.00,VWS V14.01,2013-04-25 14:49:00,
2013-04-25 10:54:00,82.0,62.7,30.11,NNE,20,4.0,7.0,52,0.00,,---,0.00,VWS V14.01,2013-04-25 14:54:00,
2013-04-25 10:59:00,82.4,61.9,30.11,North,360,1.0,7.0,50,0.00,,---,0.00,VWS V14.01,2013-04-25 14:59:00,
2013-04-25 11:04:00,82.6,61.5,30.11,East,84,5.0,5.0,49,0.00,,---,0.00,VWS V14.01,2013-04-25 15:04:00,
2013-04-25 11:09:00,83.0,61.9,30.11,NE,51,5.0,8.0,49,0.00,,---,0.00,VWS V14.01,2013-04-25 15:09:00,
2013-04-25 11:14:00,83.4,62.3,30.11,NE,55,4.0,8.0,49,0.00,,---,0.00,VWS V14.01,2013-04-25 15:14:00,
2013-04-25 11:19:00,83.6,61.3,30.11,NE,51,2.0,8.0,47,0.00,,---,0.00,VWS V14.01,2013-04-25 15:19:00,
2013-04-25 11:24:00,83.6,63.0,30.11,North,349,2.0,8.0,50,0.00,,---,0.00,VWS V14.01,2013-04-25 15:24:00,
2013-04-25 11:29:00,83.4,62.8,30.11,NNE,30,3.0,11.0,50,0.00,,---,0.00,VWS V14.01,2013-04-25 15:29:00,
2013-04-25 11:34:00,83.2,62.7,30.11,East,82,11.0,11.0,50,0.00,,---,0.00,VWS V14.01,2013-04-25 15:34:00,
2013-04-25 11:39:00,83.0,62.5,30.11,East,83,2.0,11.0,50,0.00,,---,0.00,VWS V14.01,2013-04-25 15:39:00,
2013-04-25 11:44:00,83.2,63.8,30.11,East,85,2.0,11.0,52,0.00,,---,0.00,VWS V14.01,2013-04-25 15:44:00,
2013-04-25 11:49:00,83.4,62.3,30.11,NNE,15,4.0,11.0,49,0.00,,---,0.00,VWS V14.01,2013-04-25 15:49:00,
2013-04-25 11:54:00,83.6,62.4,30.11,NNE,24,3.0,11.0,49,0.00,,---,0.00,VWS V14.01,2013-04-25 15:54:00,
2013-04-25 11:59:00,84.0,63.4,30.11,NE,35,0.0,11.0,50,0.00,,---,0.00,VWS V14.01,2013-04-25 15:59:00,
2013-04-25 12:04:00,84.3,63.1,30.11,NE,40,3.0,5.0,49,0.00,,---,0.00,VWS V14.01,2013-04-25 16:04:00,
2013-04-25 12:09:00,84.3,63.7,30.11,NE,38,3.0,6.0,50,0.00,,---,0.00,VWS V14.01,2013-04-25 16:09:00,
2013-04-25 12:14:00,84.5,62.7,30.11,NE,44,5.0,6.0,48,0.00,,---,0.00,VWS V14.01,2013-04-25 16:14:00,
2013-04-25 12:19:00,84.5,62.7,30.11,ENE,70,4.0,9.0,48,0.00,,---,0.00,VWS V14.01,2013-04-25 16:19:00,
2013-04-25 12:24:00,84.5,62.1,30.11,NE,48,0.0,9.0,47,0.00,,---,0.00,VWS V14.01,2013-04-25 16:24:00,
2013-04-25 12:29:00,84.7,62.9,30.11,NE,40,3.0,9.0,48,0.00,,---,0.00,VWS V14.01,2013-04-25 16:29:00,
2013-04-25 12:34:00,84.7,62.9,30.11,East,86,0.0,3.0,48,0.00,,---,0.00,VWS V14.01,2013-04-25 16:34:00,
2013-04-25 12:39:00,84.7,61.0,30.11,ENE,70,4.0,10.0,45,0.00,,---,0.00,VWS V14.01,2013-04-25 16:39:00,
2013-04-25 12:45:00,84.9,61.8,30.11,NE,51,4.0,10.0,46,0.00,,---,0.00,VWS V14.01,2013-04-25 16:45:00,
2013-04-25 12:50:00,85.3,63.4,30.11,NE,51,0.0,10.0,48,0.00,,---,0.00,VWS V14.01,2013-04-25 16:50:00,
2013-04-25 12:55:00,85.3,60.9,30.11,East,90,2.0,10.0,44,0.00,,---,0.00,VWS V14.01,2013-04-25 16:55:00,
2013-04-25 13:00:00,85.1,63.2,30.11,North,360,3.0,10.0,48,0.00,,---,0.00,VWS V14.01,2013-04-25 17:00:00,
2013-04-25 13:05:00,85.3,61.6,30.10,East,84,9.0,9.0,45,0.00,,---,0.00,VWS V14.01,2013-04-25 17:05:00,
2013-04-25 13:10:00,84.9,63.0,30.10,ENE,59,5.0,9.0,48,0.00,,---,0.00,VWS V14.01,2013-04-25 17:10:00,
2013-04-25 13:15:00,84.9,60.6,30.10,NE,56,4.0,9.0,44,0.00,,---,0.00,VWS V14.01,2013-04-25 17:15:00,
2013-04-25 13:20:00,84.9,61.2,30.10,ENE,59,5.0,9.0,45,0.00,,---,0.00,VWS V14.01,2013-04-25 17:20:00,
2013-04-25 13:25:00,85.1,62.6,30.10,North,360,7.0,9.0,47,0.00,,---,0.00,VWS V14.01,2013-04-25 17:25:00,
2013-04-25 13:30:00,85.5,61.8,30.10,ESE,103,4.0,9.0,45,0.00,,---,0.00,VWS V14.01,2013-04-25 17:30:00,
2013-04-25 13:35:00,85.3,62.8,30.10,NE,53,3.0,5.0,47,0.00,,---,0.00,VWS V14.01,2013-04-25 17:35:00,
2013-04-25 13:40:00,85.1,62.6,30.10,ENE,74,5.0,8.0,47,0.00,,---,0.00,VWS V14.01,2013-04-25 17:40:00,
2013-04-25 13:45:00,85.7,62.6,30.10,East,87,5.0,11.0,46,0.00,,---,0.00,VWS V14.01,2013-04-25 17:45:00,
2013-04-25 13:50:00,85.9,62.1,30.10,NE,51,4.0,11.0,45,0.00,,---,0.00,VWS V14.01,2013-04-25 17:50:00,
2013-04-25 13:55:00,85.7,63.2,30.10,NE,51,5.0,11.0,47,0.00,,---,0.00,VWS V14.01,2013-04-25 17:55:00,
2013-04-25 14:00:00,86.3,64.3,30.10,NE,34,4.0,11.0,48,0.00,,---,0.00,VWS V14.01,2013-04-25 18:00:00,
2013-04-25 14:05:00,86.1,61.7,30.09,ENE,69,4.0,10.0,44,0.00,,---,0.00,VWS V14.01,2013-04-25 18:05:00,
2013-04-25 14:10:00,86.3,61.8,30.09,ENE,58,4.0,10.0,44,0.00,,---,0.00,VWS V14.01,2013-04-25 18:10:00,
2013-04-25 14:15:00,85.9,61.5,30.09,NNW,346,0.0,10.0,44,0.00,,---,0.00,VWS V14.01,2013-04-25 18:15:00,
2013-04-25 14:20:00,85.5,65.3,30.09,NNW,344,4.0,10.0,51,0.00,,---,0.00,VWS V14.01,2013-04-25 18:20:00,
2013-04-25 14:25:00,85.9,62.1,30.09,East,86,4.0,10.0,45,0.00,,---,0.00,VWS V14.01,2013-04-25 18:25:00,
2013-04-25 14:30:00,85.9,62.1,30.09,NNE,13,2.0,13.0,45,0.00,,---,0.00,VWS V14.01,2013-04-25 18:30:00,
2013-04-25 14:35:00,85.9,62.1,30.09,NE,51,2.0,7.0,45,0.00,,---,0.00,VWS V14.01,2013-04-25 18:35:00,
2013-04-25 14:41:00,86.5,63.9,30.09,North,11,3.0,7.0,47,0.00,,---,0.00,VWS V14.01,2013-04-25 18:41:00,
2013-04-25 14:46:00,86.3,64.3,30.09,NE,49,2.0,7.0,48,0.00,,---,0.00,VWS V14.01,2013-04-25 18:46:00,
2013-04-25 14:51:00,86.3,63.1,30.09,ENE,67,6.0,9.0,46,0.00,,---,0.00,VWS V14.01,2013-04-25 18:51:00,
2013-04-25 14:56:00,86.7,64.7,30.09,NE,40,2.0,9.0,48,0.00,,---,0.00,VWS V14.01,2013-04-25 18:56:00,
2013-04-25 15:01:00,86.7,62.2,30.09,NNE,28,0.0,9.0,44,0.00,,---,0.00,VWS V14.01,2013-04-25 19:01:00,
2013-04-25 15:06:00,86.3,61.8,30.09,ENE,62,3.0,9.0,44,0.00,,---,0.00,VWS V14.01,2013-04-25 19:06:00,
2013-04-25 15:11:00,86.1,62.3,30.09,NE,49,1.0,9.0,45,0.00,,---,0.00,VWS V14.01,2013-04-25 19:11:00,
2013-04-25 15:16:00,85.7,63.8,30.09,North,355,3.0,9.0,48,0.00,,---,0.00,VWS V14.01,2013-04-25 19:16:00,
2013-04-25 15:21:00,85.9,61.5,30.08,ESE,120,5.0,10.0,44,0.00,,---,0.00,VWS V14.01,2013-04-25 19:21:00,
2013-04-25 15:26:00,85.7,63.8,30.08,NNE,32,1.0,10.0,48,0.00,,---,0.00,VWS V14.01,2013-04-25 19:26:00,
2013-04-25 15:31:00,85.9,62.7,30.08,ESE,105,3.0,10.0,46,0.00,,---,0.00,VWS V14.01,2013-04-25 19:31:00,
2013-04-25 15:36:00,85.9,62.1,30.08,ENE,78,6.0,10.0,45,0.00,,---,0.00,VWS V14.01,2013-04-25 19:36:00,
2013-04-25 15:41:00,85.9,64.0,30.08,East,79,12.0,12.0,48,0.00,,---,0.00,VWS V14.01,2013-04-25 19:41:00,
2013-04-25 15:46:00,85.7,62.6,30.08,ENE,57,4.0,12.0,46,0.00,,---,0.00,VWS V14.01,2013-04-25 19:46:00,
2013-04-25 15:51:00,85.3,64.0,30.08,East,100,3.0,12.0,49,0.00,,---,0.00,VWS V14.01,2013-04-25 19:51:00,
2013-04-25 15:56:00,85.5,63.0,30.08,ENE,63,2.0,12.0,47,0.00,,---,0.00,VWS V14.01,2013-04-25 19:56:00,
2013-04-25 16:01:00,85.7,62.6,30.08,ENE,64,1.0,12.0,46,0.00,,---,0.00,VWS V14.01,2013-04-25 20:01:00,
2013-04-25 16:06:00,85.3,63.4,30.07,East,87,6.0,8.0,48,0.00,,---,0.00,VWS V14.01,2013-04-25 20:06:00,
2013-04-25 16:11:00,85.1,63.8,30.07,ESE,105,2.0,9.0,49,0.00,,---,0.00,VWS V14.01,2013-04-25 20:11:00,
2013-04-25 16:16:00,85.3,64.6,30.07,NE,52,5.0,11.0,50,0.00,,---,0.00,VWS V14.01,2013-04-25 20:16:00,
2013-04-25 16:21:00,85.5,63.0,30.06,ENE,61,10.0,11.0,47,0.00,,---,0.00,VWS V14.01,2013-04-25 20:21:00,
2013-04-25 16:26:00,84.5,63.8,30.06,ENE,77,4.0,11.0,50,0.00,,---,0.00,VWS V14.01,2013-04-25 20:26:00,
2013-04-25 16:31:00,84.7,62.9,30.06,NNE,26,4.0,11.0,48,0.00,,---,0.00,VWS V14.01,2013-04-25 20:31:00,
2013-04-25 16:37:00,84.5,62.1,30.06,East,79,2.0,9.0,47,0.00,,---,0.00,VWS V14.01,2013-04-25 20:37:00,
2013-04-25 16:42:00,84.5,61.5,30.06,ESE,103,4.0,9.0,46,0.00,,---,0.00,VWS V14.01,2013-04-25 20:42:00,
2013-04-25 16:47:00,84.0,62.2,30.06,ENE,58,1.0,9.0,48,0.00,,---,0.00,VWS V14.01,2013-04-25 20:47:00,
2013-04-25 16:52:00,84.0,62.2,30.06,ENE,66,10.0,11.0,48,0.00,,---,0.00,VWS V14.01,2013-04-25 20:52:00,
2013-04-25 16:57:00,84.0,62.2,30.06,NNE,28,4.0,11.0,48,0.00,,---,0.00,VWS V14.01,2013-04-25 20:57:00,
2013-04-25 17:02:00,83.8,62.6,30.06,East,84,9.0,11.0,49,0.00,,---,0.00,VWS V14.01,2013-04-25 21:02:00,
2013-04-25 17:07:00,83.6,61.8,30.06,East,84,4.0,13.0,48,0.00,,---,0.00,VWS V14.01,2013-04-25 21:07:00,
2013-04-25 17:12:00,83.6,63.0,30.06,ENE,66,3.0,13.0,50,0.00,,---,0.00,VWS V14.01,2013-04-25 21:12:00,
2013-04-25 17:17:00,83.2,62.1,30.07,ENE,64,9.0,13.0,49,0.00,,---,0.00,VWS V14.01,2013-04-25 21:17:00,
2013-04-25 17:22:00,83.4,62.3,30.07,ENE,64,6.0,13.0,49,0.00,,---,0.00,VWS V14.01,2013-04-25 21:22:00,
2013-04-25 17:27:00,82.8,62.3,30.07,East,81,7.0,13.0,50,0.00,,---,0.00,VWS V14.01,2013-04-25 21:27:00,
2013-04-25 17:32:00,82.6,62.7,30.07,NE,52,6.0,13.0,51,0.00,,---,0.00,VWS V14.01,2013-04-25 21:32:00,
2013-04-25 17:37:00,82.6,62.1,30.07,NE,49,6.0,7.0,50,0.00,,---,0.00,VWS V14.01,2013-04-25 21:37:00,
2013-04-25 17:42:00,82.2,61.7,30.07,North,5,3.0,10.0,50,0.00,,---,0.00,VWS V14.01,2013-04-25 21:42:00,
2013-04-25 17:47:00,82.4,61.9,30.07,NE,40,5.0,10.0,50,0.00,,---,0.00,VWS V14.01,2013-04-25 21:47:00,
2013-04-25 17:52:00,82.0,62.1,30.07,ENE,69,5.0,10.0,51,0.00,,---,0.00,VWS V14.01,2013-04-25 21:52:00,
2013-04-25 17:57:00,81.6,62.3,30.07,ENE,75,7.0,10.0,52,0.00,,---,0.00,VWS V14.01,2013-04-25 21:57:00,
2013-04-25 18:02:00,81.2,62.5,30.07,East,91,6.0,10.0,53,0.00,,---,0.00,VWS V14.01,2013-04-25 22:02:00,
2013-04-25 18:07:00,81.1,61.8,30.07,ENE,77,3.0,12.0,52,0.00,,---,0.00,VWS V14.01,2013-04-25 22:07:00,
2013-04-25 18:12:00,80.9,62.7,30.07,NE,47,3.0,12.0,54,0.00,,---,0.00,VWS V14.01,2013-04-25 22:12:00,
2013-04-25 18:18:00,81.2,62.5,30.08,NE,50,4.0,12.0,53,0.00,,---,0.00,VWS V14.01,2013-04-25 22:18:00,
2013-04-25 18:23:00,81.2,61.9,30.08,NE,44,6.0,12.0,52,0.00,,---,0.00,VWS V14.01,2013-04-25 22:23:00,
2013-04-25 18:28:00,81.1,62.9,30.08,NE,56,10.0,12.0,54,0.00,,---,0.00,VWS V14.01,2013-04-25 22:28:00,
2013-04-25 18:33:00,80.3,61.6,30.08,ENE,72,4.0,12.0,53,0.00,,---,0.00,VWS V14.01,2013-04-25 22:33:00,
2013-04-25 18:38:00,79.9,61.3,30.08,NE,38,5.0,8.0,53,0.00,,---,0.00,VWS V14.01,2013-04-25 22:38:00,
2013-04-25 18:43:00,79.8,62.7,30.08,North,11,5.0,8.0,56,0.00,,---,0.00,VWS V14.01,2013-04-25 22:43:00,
2013-04-25 18:48:00,79.6,62.0,30.08,NE,48,0.0,8.0,55,0.00,,---,0.00,VWS V14.01,2013-04-25 22:48:00,
2013-04-25 18:53:00,79.6,61.5,30.08,NE,44,2.0,8.0,54,0.00,,---,0.00,VWS V14.01,2013-04-25 22:53:00,
2013-04-25 18:58:00,79.0,62.0,30.08,NE,46,4.0,8.0,56,0.00,,---,0.00,VWS V14.01,2013-04-25 22:58:00,
2013-04-25 19:03:00,79.0,62.5,30.08,North,351,5.0,8.0,57,0.00,,---,0.00,VWS V14.01,2013-04-25 23:03:00,
2013-04-25 19:08:00,78.8,63.3,30.08,ENE,57,3.0,5.0,59,0.00,,---,0.00,VWS V14.01,2013-04-25 23:08:00,
2013-04-25 19:13:00,78.6,63.1,30.08,ENE,57,2.0,10.0,59,0.00,,---,0.00,VWS V14.01,2013-04-25 23:13:00,
2013-04-25 19:18:00,78.5,63.0,30.08,NE,47,3.0,10.0,59,0.00,,---,0.00,VWS V14.01,2013-04-25 23:18:00,
2013-04-25 19:23:00,78.3,63.3,30.08,East,80,4.0,10.0,60,0.00,,---,0.00,VWS V14.01,2013-04-25 23:23:00,
2013-04-25 19:28:00,77.9,62.9,30.08,NE,53,4.0,10.0,60,0.00,,---,0.00,VWS V14.01,2013-04-25 23:28:00,
2013-04-25 19:33:00,77.6,63.1,30.08,ENE,65,1.0,3.0,61,0.00,,---,0.00,VWS V14.01,2013-04-25 23:33:00,
2013-04-25 19:38:00,77.2,63.2,30.08,ENE,61,4.0,5.0,62,0.00,,---,0.00,VWS V14.01,2013-04-25 23:38:00,
2013-04-25 19:43:00,77.0,63.0,30.08,East,95,4.0,5.0,62,0.00,,---,0.00,VWS V14.01,2013-04-25 23:43:00,
2013-04-25 19:48:00,76.7,63.2,30.08,ENE,69,2.0,5.0,63,0.00,,---,0.00,VWS V14.01,2013-04-25 23:48:00,
2013-04-25 19:53:00,76.5,63.4,30.08,ENE,62,2.0,5.0,64,0.00,,---,0.00,VWS V14.01,2013-04-25 23:53:00,
2013-04-25 19:58:00,76.3,63.2,30.08,ENE,78,2.0,8.0,64,0.00,,---,0.00,VWS V14.01,2013-04-25 23:58:00,
2013-04-25 20:03:00,76.1,63.5,30.09,NE,51,6.0,6.0,65,0.00,,---,0.00,VWS V14.01,2013-04-26 00:03:00,
2013-04-25 20:08:00,76.0,63.4,30.09,ENE,62,5.0,6.0,65,0.00,,---,0.00,VWS V14.01,2013-04-26 00:08:00,
2013-04-25 20:14:00,75.8,63.2,30.09,NE,55,5.0,6.0,65,0.00,,---,0.00,VWS V14.01,2013-04-26 00:14:00,
2013-04-25 20:19:00,75.6,63.0,30.09,NE,49,2.0,6.0,65,0.00,,---,0.00,VWS V14.01,2013-04-26 00:19:00,
2013-04-25 20:24:00,75.4,62.4,30.09,ENE,57,4.0,6.0,64,0.00,,---,0.00,VWS V14.01,2013-04-26 00:24:00,
2013-04-25 20:29:00,75.4,62.4,30.09,ENE,57,0.0,6.0,64,0.00,,---,0.00,VWS V14.01,2013-04-26 00:29:00,
2013-04-25 20:34:00,75.3,62.7,30.10,NE,50,2.0,2.0,65,0.00,,---,0.00,VWS V14.01,2013-04-26 00:34:00,
2013-04-25 20:39:00,75.1,62.5,30.10,NE,48,2.0,5.0,65,0.00,,---,0.00,VWS V14.01,2013-04-26 00:39:00,
2013-04-25 20:44:00,75.1,62.5,30.10,NE,49,1.0,5.0,65,0.00,,---,0.00,VWS V14.01,2013-04-26 00:44:00,
2013-04-25 20:49:00,75.1,63.0,30.10,NE,49,2.0,5.0,66,0.00,,---,0.00,VWS V14.01,2013-04-26 00:49:00,
2013-04-25 20:54:00,74.9,62.8,30.10,NE,49,3.0,5.0,66,0.00,,---,0.00,VWS V14.01,2013-04-26 00:54:00,
2013-04-25 20:59:00,74.7,62.6,30.10,NE,49,2.0,5.0,66,0.00,,---,0.00,VWS V14.01,2013-04-26 00:59:00,
2013-04-25 21:04:00,74.6,62.5,30.10,NE,51,0.0,4.0,66,0.00,,---,0.00,VWS V14.01,2013-04-26 01:04:00,
2013-04-25 21:09:00,74.6,62.9,30.10,NE,51,3.0,4.0,67,0.00,,---,0.00,VWS V14.01,2013-04-26 01:09:00,
2013-04-25 21:14:00,74.6,62.9,30.10,NE,53,2.0,4.0,67,0.00,,---,0.00,VWS V14.01,2013-04-26 01:14:00,
2013-04-25 21:19:00,74.4,62.7,30.11,NE,53,1.0,4.0,67,0.00,,---,0.00,VWS V14.01,2013-04-26 01:19:00,
2013-04-25 21:24:00,74.4,63.2,30.11,ENE,73,2.0,8.0,68,0.00,,---,0.00,VWS V14.01,2013-04-26 01:24:00,
2013-04-25 21:29:00,74.2,63.0,30.11,ENE,68,4.0,8.0,68,0.00,,---,0.00,VWS V14.01,2013-04-26 01:29:00,
2013-04-25 21:34:00,74.2,63.4,30.11,ENE,69,2.0,2.0,69,0.00,,---,0.00,VWS V14.01,2013-04-26 01:34:00,
2013-04-25 21:39:00,74.2,63.4,30.11,ENE,69,3.0,6.0,69,0.00,,---,0.00,VWS V14.01,2013-04-26 01:39:00,
2013-04-25 21:44:00,74.0,63.2,30.11,ENE,69,0.0,6.0,69,0.00,,---,0.00,VWS V14.01,2013-04-26 01:44:00,
2013-04-25 21:49:00,73.9,63.1,30.11,ENE,69,1.0,6.0,69,0.00,,---,0.00,VWS V14.01,2013-04-26 01:49:00,
2013-04-25 21:54:00,73.9,63.1,30.11,ENE,64,5.0,6.0,69,0.00,,---,0.00,VWS V14.01,2013-04-26 01:54:00,
2013-04-25 21:59:00,73.9,63.1,30.11,ENE,64,0.0,6.0,69,0.00,,---,0.00,VWS V14.01,2013-04-26 01:59:00,
2013-04-25 22:05:00,73.7,62.9,30.12,ENE,65,2.0,3.0,69,0.00,,---,0.00,VWS V14.01,2013-04-26 02:05:00,
2013-04-25 22:10:00,73.7,62.9,30.12,ENE,65,3.0,3.0,69,0.00,,---,0.00,VWS V14.01,2013-04-26 02:10:00,
2013-04-25 22:15:00,73.5,62.7,30.12,ENE,65,1.0,3.0,69,0.00,,---,0.00,VWS V14.01,2013-04-26 02:15:00,
2013-04-25 22:20:00,73.5,62.3,30.13,ENE,65,4.0,4.0,68,0.00,,---,0.00,VWS V14.01,2013-04-26 02:20:00,
2013-04-25 22:25:00,73.5,62.7,30.13,ENE,65,0.0,4.0,69,0.00,,---,0.00,VWS V14.01,2013-04-26 02:25:00,
2013-04-25 22:30:00,73.3,62.5,30.13,ENE,65,4.0,4.0,69,0.00,,---,0.00,VWS V14.01,2013-04-26 02:30:00,
2013-04-25 22:35:00,73.3,62.5,30.13,ENE,65,2.0,3.0,69,0.00,,---,0.00,VWS V14.01,2013-04-26 02:35:00,
2013-04-25 22:40:00,73.2,62.4,30.13,ENE,65,1.0,3.0,69,0.00,,---,0.00,VWS V14.01,2013-04-26 02:40:00,
2013-04-25 22:45:00,73.2,62.4,30.13,ENE,65,0.0,4.0,69,0.00,,---,0.00,VWS V14.01,2013-04-26 02:45:00,
2013-04-25 22:50:00,73.2,62.8,30.12,ENE,65,0.0,4.0,70,0.00,,---,0.00,VWS V14.01,2013-04-26 02:50:00,
2013-04-25 22:55:00,73.0,62.7,30.12,ENE,65,0.0,5.0,70,0.00,,---,0.00,VWS V14.01,2013-04-26 02:55:00,
2013-04-25 23:00:00,73.0,63.0,30.12,ENE,65,2.0,5.0,71,0.00,,---,0.00,VWS V14.01,2013-04-26 03:00:00,
2013-04-25 23:05:00,73.0,63.0,30.13,ENE,65,0.0,3.0,71,0.00,,---,0.00,VWS V14.01,2013-04-26 03:05:00,
2013-04-25 23:10:00,72.8,62.9,30.13,ENE,65,0.0,3.0,71,0.00,,---,0.00,VWS V14.01,2013-04-26 03:10:00,
2013-04-25 23:15:00,72.8,63.3,30.13,ENE,65,2.0,3.0,72,0.00,,---,0.00,VWS V14.01,2013-04-26 03:15:00,
2013-04-25 23:20:00,72.7,63.2,30.13,ENE,65,1.0,3.0,72,0.00,,---,0.00,VWS V14.01,2013-04-26 03:20:00,
2013-04-25 23:25:00,72.7,63.2,30.13,ENE,65,2.0,3.0,72,0.00,,---,0.00,VWS V14.01,2013-04-26 03:25:00,
2013-04-25 23:30:00,72.5,63.4,30.13,ENE,65,3.0,3.0,73,0.00,,---,0.00,VWS V14.01,2013-04-26 03:30:00,
2013-04-25 23:35:00,72.5,63.4,30.13,ENE,65,2.0,3.0,73,0.00,,---,0.00,VWS V14.01,2013-04-26 03:35:00,
2013-04-25 23:40:00,72.3,63.2,30.13,ENE,65,2.0,3.0,73,0.00,,---,0.00,VWS V14.01,2013-04-26 03:40:00,
2013-04-25 23:45:00,72.3,63.2,30.13,ENE,65,2.0,3.0,73,0.00,,---,0.00,VWS V14.01,2013-04-26 03:45:00,
2013-04-25 23:50:00,72.1,63.0,30.13,ENE,65,1.0,3.0,73,0.00,,---,0.00,VWS V14.01,2013-04-26 03:50:00,
2013-04-25 23:55:00,72.1,63.0,30.13,ENE,65,0.0,3.0,73,0.00,,---,0.00,VWS V14.01,2013-04-26 03:55:00,